QPF
0.00 0.00 0.00 0.00 0.00 0.00 0.00 0.00 0.00 0.00 0.00 0.00 0.00 0.00 0.00 0.00 0.00 0.00 0.00 0.00 0.00 0.01 0.02 0.01 0.01 0.01 0.02 0.04 0.06 0.06 0.05 0.04 0.05 0.05 0.05 0.05 0.06 0.05 0.06 0.06 0.07 0.07 0.07 0.06
0.00 0.00 0.00 0.00 0.00 0.00 0.00 0.00 0.00 0.00 0.00 0.00 0.00 0.00 0.00 0.00 0.02 0.01 0.01 0.00 0.00 0.01 0.02 0.02 0.02 0.02 0.02 0.03 0.05 0.07 0.07 0.09 0.08 0.07 0.06 0.05 0.04 0.05 0.06 0.07 0.07 0.06 0.07 0.06
0.01 0.01 0.01 0.01 0.00 0.00 0.00 0.00 0.00 0.01 0.01 0.00 0.00 0.00 0.00 0.01 0.06 0.05 0.01 0.00 0.01 0.03 0.04 0.03 0.02 0.03 0.03 0.03 0.03 0.05 0.07 0.07 0.07 0.07 0.08 0.06 0.05 0.06 0.07 0.07 0.07 0.06 0.06 0.06
0.02 0.02 0.02 0.01 0.01 0.00 0.00 0.00 0.00 0.01 0.01 0.00 0.00 0.00 0.00 0.00 0.04 0.05 0.02 0.01 0.01 0.04 0.07 0.06 0.04 0.04 0.04 0.03 0.04 0.05 0.06 0.06 0.06 0.06 0.08 0.08 0.07 0.06 0.06 0.07 0.07 0.09 0.07 0.06
0.03 0.03 0.02 0.01 0.01 0.01 0.01 0.01 0.01 0.00 0.00 0.00 0.00 0.01 0.01 0.00 0.02 0.02 0.02 0.02 0.02 0.02 0.06 0.09 0.07 0.04 0.04 0.04 0.03 0.04 0.04 0.04 0.04 0.05 0.05 0.06 0.06 0.06 0.06 0.07 0.08 0.08 0.06 0.05
0.02 0.03 0.03 0.02 0.00 0.00 0.01 0.02 0.01 0.00 0.00 0.01 0.01 0.02 0.02 0.01 0.00 0.01 0.02 0.02 0.02 0.02 0.03 0.05 0.05 0.03 0.03 0.03 0.03 0.02 0.02 0.02 0.03 0.04 0.05 0.04 0.05 0.06 0.06 0.07 0.07 0.06 0.05 0.04
0.04 0.03 0.02 0.01 0.01 0.01 0.03 0.03 0.01 0.01 0.01 0.01 0.01 0.02 0.01 0.01 0.01 0.02 0.01 0.01 0.01 0.01 0.01 0.02 0.03 0.03 0.03 0.03 0.04 0.04 0.04 0.04 0.03 0.05 0.05 0.06 0.07 0.06 0.06 0.06 0.06 0.05 0.04 0.03
0.05 0.04 0.03 0.01 0.01 0.02 0.02 0.01 0.01 0.01 0.01 0.02 0.03 0.03 0.02 0.01 0.02 0.02 0.02 0.01 0.02 0.02 0.02 0.02 0.03 0.03 0.03 0.03 0.04 0.04 0.04 0.04 0.04 0.04 0.05 0.05 0.06 0.05 0.05 0.05 0.04 0.04 0.04 0.04
0.02 0.03 0.02 0.01 0.01 0.01 0.01 0.01 0.02 0.01 0.02 0.03 0.04 0.06 0.06 0.02 0.02 0.02 0.02 0.01 0.01 0.03 0.04 0.04 0.04 0.05 0.04 0.03 0.03 0.03 0.03 0.03 0.03 0.04 0.06 0.07 0.05 0.05 0.04 0.03 0.03 0.03 0.03 0.04
0.02 0.02 0.02 0.01 0.01 0.01 0.01 0.01 0.02 0.02 0.02 0.02 0.06 0.12 0.10 0.04 0.02 0.02 0.02 0.02 0.02 0.02 0.03 0.03 0.03 0.05 0.08 0.07 0.05 0.05 0.05 0.05 0.05 0.04 0.03 0.04 0.04 0.04 0.03 0.03 0.02 0.02 0.02 0.03
0.02 0.02 0.02 0.02 0.02 0.02 0.02 0.01 0.02 0.02 0.02 0.02 0.05 0.08 0.08 0.06 0.03 0.02 0.01 0.02 0.02 0.03 0.05 0.03 0.02 0.03 0.05 0.09 0.06 0.05 0.05 0.04 0.03 0.03 0.03 0.03 0.03 0.03 0.04 0.03 0.03 0.03 0.04 0.04
0.02 0.02 0.02 0.03 0.03 0.03 0.02 0.02 0.02 0.02 0.02 0.02 0.04 0.05 0.05 0.05 0.03 0.01 0.01 0.01 0.02 0.02 0.03 0.03 0.02 0.02 0.03 0.05 0.06 0.06 0.05 0.04 0.04 0.04 0.04 0.05 0.05 0.05 0.05 0.04 0.03 0.03 0.03 0.04
0.01 0.01 0.01 0.02 0.03 0.03 0.03 0.02 0.01 0.01 0.02 0.02 0.03 0.04 0.03 0.02 0.01 0.01 0.01 0.01 0.01 0.02 0.04 0.04 0.03 0.03 0.03 0.04 0.05 0.06 0.06 0.06 0.04 0.04 0.04 0.03 0.03 0.04 0.04 0.05 0.06 0.05 0.04 0.04
0.01 0.01 0.02 0.02 0.02 0.02 0.02 0.01 0.01 0.01 0.02 0.03 0.03 0.03 0.02 0.01 0.01 0.01 0.01 0.01 0.01 0.02 0.04 0.04 0.03 0.02 0.03 0.03 0.03 0.04 0.05 0.07 0.05 0.04 0.03 0.02 0.02 0.02 0.03 0.04 0.06 0.07 0.06 0.06
0.02 0.02 0.04 0.04 0.02 0.02 0.02 0.02 0.02 0.03 0.04 0.04 0.04 0.04 0.04 0.03 0.02 0.02 0.02 0.02 0.02 0.02 0.02 0.03 0.03 0.03 0.02 0.03 0.03 0.03 0.04 0.05 0.05 0.05 0.05 0.03 0.03 0.03 0.04 0.05 0.06 0.07 0.07 0.07
0.03 0.02 0.03 0.03 0.02 0.03 0.03 0.04 0.04 0.04 0.05 0.06 0.05 0.05 0.04 0.04 0.05 0.04 0.03 0.02 0.02 0.02 0.03 0.03 0.04 0.04 0.03 0.03 0.04 0.04 0.05 0.05 0.04 0.04 0.04 0.04 0.04 0.04 0.04 0.04 0.05 0.06 0.07 0.06
0.03 0.03 0.03 0.03 0.03 0.03 0.04 0.05 0.05 0.07 0.08 0.06 0.04 0.03 0.03 0.03 0.04 0.04 0.03 0.02 0.03 0.03 0.04 0.05 0.06 0.07 0.05 0.04 0.05 0.05 0.04 0.04 0.04 0.03 0.03 0.03 0.04 0.05 0.04 0.05 0.05 0.05 0.05 0.05
0.05 0.05 0.04 0.04 0.04 0.03 0.04 0.05 0.06 0.07 0.07 0.04 0.02 0.02 0.02 0.02 0.03 0.04 0.03 0.02 0.03 0.05 0.08 0.09 0.09 0.10 0.09 0.06 0.06 0.05 0.04 0.04 0.04 0.03 0.03 0.04 0.05 0.05 0.04 0.04 0.04 0.04 0.05 0.05
0.07 0.05 0.04 0.04 0.03 0.04 0.05 0.06 0.06 0.06 0.06 0.05 0.03 0.02 0.02 0.04 0.05 0.04 0.03 0.02 0.03 0.07 0.13 0.14 0.12 0.10 0.10 0.09 0.09 0.08 0.06 0.05 0.05 0.05 0.05 0.05 0.07 0.08 0.07 0.05 0.04 0.04 0.04 0.04
0.07 0.05 0.04 0.04 0.04 0.06 0.07 0.07 0.08 0.08 0.06 0.05 0.04 0.03 0.03 0.04 0.04 0.03 0.03 0.04 0.06 0.10 0.15 0.15 0.10 0.08 0.08 0.09 0.11 0.08 0.07 0.06 0.06 0.07 0.06 0.06 0.06 0.06 0.06 0.05 0.04 0.04 0.04 0.05
0.08 0.06 0.04 0.04 0.06 0.08 0.10 0.11 0.10 0.07 0.05 0.05 0.05 0.04 0.04 0.03 0.03 0.04 0.06 0.08 0.08 0.09 0.09 0.10 0.10 0.09 0.09 0.09 0.08 0.06 0.06 0.06 0.06 0.07 0.05 0.04 0.04 0.04 0.04 0.03 0.03 0.04 0.05 0.05
0.08 0.07 0.06 0.07 0.08 0.09 0.10 0.09 0.07 0.05 0.05 0.05 0.04 0.04 0.03 0.04 0.05 0.06 0.07 0.09 0.08 0.07 0.07 0.07 0.08 0.09 0.08 0.07 0.06 0.05 0.06 0.07 0.06 0.06 0.05 0.03 0.03 0.03 0.02 0.02 0.03 0.03 0.03 0.03
0.07 0.07 0.07 0.08 0.06 0.06 0.05 0.04 0.03 0.03 0.04 0.04 0.04 0.03 0.04 0.04 0.05 0.07 0.06 0.04 0.04 0.03 0.03 0.04 0.06 0.07 0.07 0.07 0.06 0.05 0.05 0.05 0.04 0.04 0.05 0.04 0.04 0.04 0.04 0.04 0.04 0.04 0.04 0.04
0.06 0.06 0.07 0.06 0.04 0.03 0.03 0.03 0.03 0.03 0.03 0.03 0.04 0.04 0.02 0.02 0.02 0.03 0.03 0.03 0.03 0.04 0.05 0.07 0.07 0.07 0.07 0.09 0.10 0.10 0.09 0.07 0.07 0.06 0.05 0.05 0.05 0.05 0.04 0.04 0.04 0.05 0.06 0.05
0.05 0.06 0.06 0.04 0.02 0.03 0.03 0.03 0.03 0.03 0.03 0.03 0.03 0.03 0.02 0.02 0.02 0.02 0.01 0.01 0.02 0.03 0.04 0.06 0.07 0.07 0.07 0.07 0.07 0.08 0.10 0.10 0.09 0.08 0.07 0.06 0.06 0.05 0.05 0.04 0.04 0.04 0.04 0.05
0.07 0.06 0.05 0.04 0.04 0.04 0.04 0.04 0.05 0.05 0.04 0.05 0.05 0.04 0.02 0.02 0.01 0.01 0.01 0.01 0.01 0.02 0.02 0.02 0.02 0.03 0.03 0.03 0.03 0.04 0.05 0.05 0.05 0.05 0.06 0.06 0.06 0.06 0.05 0.05 0.04 0.03 0.03 0.03
0.08 0.08 0.08 0.08 0.07 0.05 0.04 0.04 0.04 0.03 0.03 0.03 0.03 0.02 0.02 0.01 0.01 0.01 0.01 0.01 0.01 0.01 0.01 0.01 0.02 0.02 0.02 0.03 0.04 0.05 0.06 0.06 0.07 0.07 0.07 0.07 0.07 0.07 0.06 0.05 0.03 0.03 0.03 0.03
MSLP
1005.39 1005.08 1004.85 1004.73 1004.69 1004.73 1004.81 1004.88 1004.93 1004.92 1004.85 1004.73 1004.60 1004.49 1004.43 1004.46 1004.59 1004.83 1005.16 1005.57 1006.01 1006.45 1006.88 1007.27 1007.62 1007.93 1008.21 1008.48 1008.75 1009.03 1009.32 1009.61 1009.92 1010.22 1010.51 1010.80 1011.07 1011.35 1011.62 1011.91 1012.20 1012.50 1012.80 1013.09
1005.43 1005.02 1004.66 1004.37 1004.17 1004.06 1004.02 1004.05 1004.11 1004.21 1004.31 1004.42 1004.54 1004.67 1004.82 1005.00 1005.21 1005.46 1005.74 1006.03 1006.34 1006.65 1006.95 1007.24 1007.52 1007.81 1008.09 1008.37 1008.65 1008.93 1009.20 1009.46 1009.70 1009.92 1010.12 1010.30 1010.49 1010.69 1010.90 1011.14 1011.40 1011.68 1011.97 1012.26
1005.43 1004.98 1004.55 1004.17 1003.87 1003.66 1003.56 1003.56 1003.66 1003.85 1004.11 1004.42 1004.76 1005.11 1005.45 1005.77 1006.07 1006.33 1006.56 1006.77 1006.95 1007.13 1007.31 1007.50 1007.71 1007.95 1008.20 1008.47 1008.74 1009.00 1009.23 1009.42 1009.58 1009.70 1009.78 1009.86 1009.94 1010.05 1010.19 1010.37 1010.59 1010.84 1011.12 1011.40
1005.42 1005.00 1004.59 1004.19 1003.86 1003.62 1003.50 1003.51 1003.65 1003.93 1004.31 1004.78 1005.30 1005.83 1006.33 1006.77 1007.14 1007.43 1007.64 1007.77 1007.86 1007.93 1008.00 1008.10 1008.23 1008.41 1008.61 1008.84 1009.07 1009.27 1009.43 1009.53 1009.58 1009.58 1009.54 1009.49 1009.46 1009.46 1009.51 1009.61 1009.78 1009.99 1010.23 1010.49
1005.48 1005.15 1004.80 1004.47 1004.17 1003.96 1003.86 1003.90 1004.09 1004.43 1004.91 1005.49 1006.14 1006.79 1007.41 1007.95 1008.38 1008.70 1008.90 1008.99 1009.02 1009.01 1009.00 1009.01 1009.07 1009.17 1009.31 1009.47 1009.63 1009.75 1009.81 1009.81 1009.73 1009.60 1009.42 1009.24 1009.07 1008.95 1008.90 1008.92 1009.00 1009.15 1009.34 1009.55
1005.64 1005.43 1005.21 1004.99 1004.79 1004.64 1004.60 1004.68 1004.92 1005.31 1005.84 1006.48 1007.20 1007.93 1008.62 1009.22 1009.70 1010.05 1010.25 1010.33 1010.33 1010.27 1010.20 1010.15 1010.14 1010.18 1010.25 1010.33 1010.39 1010.41 1010.36 1010.24 1010.03 1009.76 1009.45 1009.13 1008.84 1008.60 1008.42 1008.33 1008.32 1008.37 1008.48 1008.61
1005.93 1005.87 1005.80 1005.72 1005.64 1005.60 1005.63 1005.77 1006.04 1006.45 1006.99 1007.65 1008.38 1009.14 1009.85 1010.48 1010.99 1011.36 1011.58 1011.67 1011.66 1011.59 1011.50 1011.41 1011.35 1011.32 1011.31 1011.31 1011.28 1011.20 1011.04 1010.80 1010.48 1010.09 1009.66 1009.22 1008.80 1008.44 1008.14 1007.93 1007.80 1007.73 1007.71 1007.73
1006.37 1006.45 1006.53 1006.60 1006.67 1006.74 1006.86 1007.05 1007.34 1007.74 1008.27 1008.89 1009.59 1010.32 1011.02 1011.64 1012.16 1012.54 1012.79 1012.90 1012.91 1012.85 1012.76 1012.65 1012.56 1012.48 1012.41 1012.33 1012.22 1012.05 1011.80 1011.47 1011.05 1010.57 1010.05 1009.51 1009.00 1008.53 1008.12 1007.78 1007.51 1007.29 1007.12 1006.98
1006.91 1007.12 1007.35 1007.58 1007.78 1007.98 1008.17 1008.41 1008.70 1009.09 1009.56 1010.12 1010.75 1011.41 1012.05 1012.65 1013.15 1013.54 1013.81 1013.95 1013.99 1013.96 1013.89 1013.78 1013.67 1013.57 1013.45 1013.31 1013.13 1012.89 1012.58 1012.18 1011.72 1011.18 1010.61 1010.02 1009.44 1008.89 1008.39 1007.93 1007.52 1007.14 1006.79 1006.47
1007.52 1007.86 1008.22 1008.59 1008.92 1009.22 1009.49 1009.77 1010.06 1010.40 1010.81 1011.28 1011.81 1012.38 1012.94 1013.48 1013.95 1014.34 1014.62 1014.80 1014.88 1014.88 1014.83 1014.74 1014.63 1014.50 1014.36 1014.18 1013.95 1013.67 1013.33 1012.92 1012.44 1011.90 1011.33 1010.73 1010.13 1009.54 1008.96 1008.41 1007.86 1007.33 1006.80 1006.27
1008.18 1008.61 1009.10 1009.58 1010.03 1010.43 1010.76 1011.06 1011.35 1011.64 1011.97 1012.35 1012.77 1013.23 1013.71 1014.18 1014.61 1014.98 1015.27 1015.47 1015.59 1015.63 1015.61 1015.53 1015.43 1015.29 1015.12 1014.91 1014.67 1014.37 1014.03 1013.63 1013.18 1012.69 1012.16 1011.60 1011.02 1010.43 1009.82 1009.20 1008.56 1007.89 1007.20 1006.49
1008.84 1009.37 1009.96 1010.55 1011.09 1011.56 1011.95 1012.28 1012.55 1012.80 1013.06 1013.34 1013.67 1014.03 1014.42 1014.82 1015.20 1015.55 1015.83 1016.05 1016.19 1016.26 1016.26 1016.20 1016.09 1015.94 1015.75 1015.53 1015.28 1014.99 1014.67 1014.31 1013.92 1013.50 1013.05 1012.56 1012.05 1011.50 1010.91 1010.27 1009.57 1008.81 1008.00 1007.15
1009.52 1010.14 1010.81 1011.48 1012.10 1012.63 1013.06 1013.41 1013.68 1013.89 1014.10 1014.31 1014.55 1014.82 1015.14 1015.47 1015.81 1016.13 1016.41 1016.63 1016.79 1016.87 1016.88 1016.82 1016.70 1016.53 1016.33 1016.09 1015.83 1015.55 1015.25 1014.95 1014.63 1014.30 1013.94 1013.56 1013.14 1012.67 1012.13 1011.51 1010.81 1010.02 1009.14 1008.21
1010.24 1010.92 1011.66 1012.39 1013.06 1013.64 1014.11 1014.47 1014.74 1014.94 1015.11 1015.27 1015.45 1015.66 1015.92 1016.20 1016.50 1016.79 1017.06 1017.28 1017.44 1017.52 1017.53 1017.46 1017.33 1017.13 1016.90 1016.64 1016.36 1016.08 1015.81 1015.55 1015.30 1015.05 1014.80 1014.52 1014.21 1013.83 1013.37 1012.82 1012.16 1011.39 1010.53 1009.58
1011.01 1011.75 1012.53 1013.30 1014.00 1014.61 1015.11 1015.49 1015.76 1015.96 1016.11 1016.25 1016.40 1016.57 1016.79 1017.04 1017.31 1017.58 1017.84 1018.05 1018.20 1018.27 1018.27 1018.18 1018.01 1017.78 1017.51 1017.22 1016.92 1016.63 1016.36 1016.12 1015.92 1015.74 1015.57 1015.38 1015.17 1014.89 1014.53 1014.07 1013.49 1012.79 1011.99 1011.10
1011.88 1012.65 1013.44 1014.22 1014.93 1015.55 1016.06 1016.45 1016.74 1016.95 1017.11 1017.24 1017.38 1017.55 1017.74 1017.98 1018.23 1018.49 1018.73 1018.93 1019.07 1019.12 1019.09 1018.97 1018.77 1018.51 1018.19 1017.85 1017.51 1017.20 1016.92 1016.68 1016.49 1016.35 1016.23 1016.11 1015.97 1015.78 1015.51 1015.14 1014.66 1014.07 1013.37 1012.58
1012.86 1013.62 1014.40 1015.15 1015.85 1016.46 1016.97 1017.37 1017.67 1017.90 1018.08 1018.23 1018.39 1018.56 1018.75 1018.98 1019.22 1019.47 1019.70 1019.89 1020.00 1020.04 1019.98 1019.84 1019.60 1019.29 1018.93 1018.55 1018.17 1017.81 1017.49 1017.24 1017.04 1016.89 1016.79 1016.69 1016.59 1016.45 1016.25 1015.96 1015.58 1015.09 1014.51 1013.86
1013.93 1014.65 1015.39 1016.09 1016.75 1017.33 1017.83 1018.23 1018.56 1018.81 1019.02 1019.20 1019.37 1019.56 1019.77 1020.00 1020.23 1020.47 1020.68 1020.85 1020.95 1020.97 1020.89 1020.72 1020.45 1020.11 1019.72 1019.29 1018.86 1018.46 1018.10 1017.80 1017.57 1017.39 1017.25 1017.15 1017.05 1016.93 1016.76 1016.52 1016.21 1015.81 1015.35 1014.82
1015.07 1015.72 1016.38 1017.02 1017.62 1018.16 1018.63 1019.04 1019.38 1019.66 1019.90 1020.11 1020.32 1020.52 1020.74 1020.97 1021.20 1021.42 1021.62 1021.76 1021.84 1021.84 1021.75 1021.56 1021.28 1020.92 1020.51 1020.05 1019.59 1019.15 1018.75 1018.39 1018.10 1017.87 1017.69 1017.54 1017.40 1017.25 1017.08 1016.86 1016.58 1016.24 1015.85 1015.42
1016.20 1016.78 1017.35 1017.91 1018.44 1018.94 1019.39 1019.79 1020.14 1020.45 1020.72 1020.96 1021.19 1021.42 1021.64 1021.86 1022.08 1022.28 1022.45 1022.58 1022.64 1022.62 1022.52 1022.33 1022.05 1021.69 1021.28 1020.82 1020.34 1019.87 1019.43 1019.03 1018.69 1018.39 1018.14 1017.93 1017.73 1017.53 1017.32 1017.07 1016.79 1016.47 1016.12 1015.74
1017.28 1017.77 1018.26 1018.74 1019.21 1019.66 1020.09 1020.49 1020.85 1021.18 1021.48 1021.75 1022.00 1022.23 1022.45 1022.66 1022.85 1023.03 1023.17 1023.27 1023.31 1023.29 1023.19 1023.00 1022.74 1022.40 1022.00 1021.56 1021.09 1020.62 1020.16 1019.73 1019.33 1018.98 1018.67 1018.38 1018.12 1017.85 1017.58 1017.29 1016.98 1016.65 1016.29 1015.93
1018.25 1018.67 1019.08 1019.50 1019.92 1020.34 1020.76 1021.16 1021.54 1021.89 1022.21 1022.49 1022.75 1022.98 1023.19 1023.37 1023.53 1023.67 1023.78 1023.85 1023.87 1023.84 1023.74 1023.58 1023.34 1023.04 1022.68 1022.27 1021.83 1021.37 1020.91 1020.47 1020.05 1019.66 1019.30 1018.96 1018.63 1018.31 1017.98 1017.64 1017.29 1016.92 1016.54 1016.16
1019.09 1019.44 1019.81 1020.18 1020.57 1020.98 1021.40 1021.80 1022.20 1022.57 1022.90 1023.20 1023.45 1023.67 1023.86 1024.01 1024.13 1024.23 1024.30 1024.34 1024.34 1024.30 1024.21 1024.07 1023.87 1023.61 1023.29 1022.93 1022.54 1022.12 1021.68 1021.25 1020.83 1020.42 1020.04 1019.66 1019.29 1018.93 1018.56 1018.18 1017.79 1017.39 1016.98 1016.57
1019.78 1020.11 1020.45 1020.81 1021.19 1021.60 1022.02 1022.44 1022.85 1023.23 1023.58 1023.87 1024.12 1024.32 1024.47 1024.59 1024.67 1024.72 1024.75 1024.76 1024.74 1024.69 1024.61 1024.49 1024.33 1024.11 1023.85 1023.54 1023.19 1022.82 1022.43 1022.02 1021.62 1021.22 1020.84 1020.45 1020.08 1019.70 1019.32 1018.93 1018.53 1018.11 1017.67 1017.24
1020.36 1020.69 1021.03 1021.39 1021.78 1022.20 1022.64 1023.07 1023.49 1023.89 1024.23 1024.52 1024.76 1024.93 1025.05 1025.13 1025.16 1025.17 1025.16 1025.13 1025.10 1025.04 1024.96 1024.86 1024.72 1024.54 1024.33 1024.07 1023.78 1023.45 1023.10 1022.74 1022.37 1022.00 1021.63 1021.27 1020.91 1020.56 1020.19 1019.82 1019.43 1019.02 1018.59 1018.15
1020.87 1021.21 1021.57 1021.95 1022.36 1022.80 1023.25 1023.69 1024.12 1024.52 1024.86 1025.14 1025.35 1025.49 1025.58 1025.62 1025.62 1025.59 1025.54 1025.48 1025.42 1025.35 1025.27 1025.17 1025.05 1024.91 1024.73 1024.51 1024.25 1023.97 1023.66 1023.34 1023.01 1022.67 1022.34 1022.02 1021.70 1021.38 1021.06 1020.73 1020.38 1020.01 1019.61 1019.19
1021.34 1021.72 1022.10 1022.51 1022.94 1023.39 1023.85 1024.30 1024.72 1025.11 1025.44 1025.70 1025.89 1026.01 1026.06 1026.07 1026.03 1025.97 1025.89 1025.80 1025.71 1025.63 1025.54 1025.44 1025.33 1025.19 1025.03 1024.84 1024.61 1024.36 1024.08 1023.79 1023.49 1023.19 1022.90 1022.62 1022.35 1022.08 1021.81 1021.53 1021.24 1020.92 1020.58 1020.21
Thickness
5744 5752 5754 5751 5751 5754 5753 5758 5756 5763 5766 5771 5773 5772 5772 5771 5770 5769 5768 5767 5766 5764 5763 5762 5761 5759 5757 5756 5754 5751 5747 5745 5743 5742 5740 5738 5736 5734 5733 5731 5730 5728 5726 5725
5731 5744 5748 5746 5752 5754 5755 5760 5761 5763 5763 5773 5772 5770 5766 5765 5764 5762 5762 5762 5763 5762 5760 5759 5757 5756 5754 5752 5750 5748 5745 5743 5742 5740 5738 5736 5735 5733 5731 5729 5728 5726 5725 5724
5721 5735 5734 5728 5745 5749 5751 5757 5758 5754 5759 5764 5760 5759 5759 5759 5759 5758 5758 5759 5759 5759 5758 5756 5755 5753 5750 5749 5747 5744 5742 5741 5739 5737 5735 5734 5733 5732 5729 5728 5726 5724 5723 5723
5719 5716 5701 5732 5752 5754 5750 5750 5756 5756 5757 5757 5755 5754 5756 5756 5754 5753 5755 5755 5755 5756 5755 5755 5753 5751 5749 5747 5743 5741 5739 5738 5737 5735 5733 5732 5730 5729 5727 5726 5724 5722 5722 5721
5711 5706 5713 5726 5738 5743 5740 5737 5748 5748 5749 5751 5751 5750 5747 5749 5750 5750 5750 5751 5752 5753 5753 5751 5749 5747 5744 5742 5740 5738 5737 5736 5735 5732 5730 5728 5726 5725 5724 5723 5721 5720 5720 5719
5705 5701 5700 5721 5736 5743 5739 5725 5741 5743 5743 5745 5745 5740 5736 5740 5743 5744 5746 5747 5747 5749 5748 5745 5743 5742 5739 5737 5735 5734 5734 5734 5733 5730 5728 5726 5724 5723 5722 5720 5719 5718 5717 5717
5699 5700 5708 5721 5730 5731 5716 5720 5734 5737 5738 5739 5736 5735 5732 5735 5735 5737 5739 5740 5741 5741 5740 5739 5738 5736 5734 5733 5732 5732 5732 5731 5729 5727 5725 5724 5722 5720 5719 5718 5716 5715 5714 5714
5692 5693 5695 5710 5719 5717 5717 5724 5728 5729 5729 5728 5726 5725 5726 5727 5728 5730 5731 5733 5734 5733 5733 5733 5732 5731 5729 5728 5729 5729 5728 5726 5725 5723 5722 5721 5718 5716 5716 5714 5712 5711 5710 5710
5687 5685 5688 5699 5705 5709 5715 5715 5717 5719 5719 5718 5717 5717 5717 5718 5720 5722 5724 5726 5727 5727 5725 5725 5726 5726 5724 5724 5725 5725 5724 5722 5720 5719 5718 5717 5714 5713 5711 5710 5710 5710 5709 5708
5674 5676 5681 5688 5696 5701 5705 5705 5707 5709 5710 5710 5709 5709 5709 5710 5711 5713 5715 5717 5719 5720 5718 5717 5718 5719 5720 5720 5721 5720 5718 5717 5715 5714 5712 5712 5711 5710 5709 5708 5708 5707 5706 5705
5665 5668 5674 5678 5684 5689 5693 5696 5697 5699 5700 5700 5701 5700 5699 5699 5701 5703 5706 5708 5710 5710 5710 5710 5712 5712 5714 5715 5716 5715 5714 5712 5711 5711 5709 5706 5703 5700 5701 5699 5699 5699 5700 5700
5662 5665 5669 5667 5674 5679 5681 5683 5686 5687 5688 5690 5691 5690 5691 5691 5693 5695 5697 5699 5700 5701 5703 5704 5705 5705 5707 5709 5710 5709 5708 5707 5707 5706 5703 5700 5696 5692 5686 5688 5686 5686 5686 5688
5656 5660 5661 5662 5665 5669 5672 5674 5677 5678 5679 5679 5680 5682 5682 5683 5684 5686 5688 5690 5691 5693 5694 5696 5697 5698 5700 5702 5702 5702 5702 5701 5702 5701 5698 5694 5692 5689 5684 5678 5675 5674 5673 5673
5647 5650 5649 5652 5655 5659 5662 5665 5667 5668 5669 5670 5670 5671 5673 5674 5675 5677 5678 5680 5683 5685 5686 5688 5689 5690 5692 5693 5694 5694 5694 5693 5692 5691 5690 5688 5686 5683 5681 5677 5673 5669 5663 5661
5638 5643 5643 5644 5647 5650 5653 5655 5656 5656 5658 5659 5661 5662 5663 5664 5665 5666 5669 5672 5674 5676 5677 5679 5680 5681 5683 5685 5685 5685 5686 5685 5684 5683 5682 5680 5678 5675 5672 5669 5666 5661 5658 5654
5629 5633 5635 5636 5638 5640 5642 5644 5645 5646 5648 5649 5650 5651 5652 5654 5655 5656 5659 5662 5664 5665 5666 5668 5670 5671 5674 5676 5676 5676 5675 5673 5674 5674 5673 5670 5667 5665 5661 5658 5655 5651 5648 5645
5620 5622 5625 5626 5629 5631 5633 5635 5636 5636 5638 5639 5640 5641 5643 5645 5645 5646 5648 5650 5652 5653 5656 5659 5660 5662 5664 5665 5667 5667 5665 5664 5662 5663 5661 5659 5656 5653 5650 5646 5643 5640 5636 5632
5614 5617 5619 5621 5622 5623 5624 5625 5626 5627 5629 5630 5632 5633 5634 5634 5634 5635 5638 5640 5642 5643 5644 5647 5649 5651 5653 5654 5655 5656 5655 5654 5652 5651 5648 5645 5643 5641 5638 5634 5630 5626 5622 5618
5607 5610 5611 5613 5614 5615 5615 5616 5617 5618 5620 5621 5622 5622 5622 5623 5624 5625 5628 5629 5631 5631 5630 5633 5634 5639 5640 5641 5642 5643 5643 5642 5640 5637 5634 5629 5629 5626 5622 5619 5615 5611 5607 5604
5600 5603 5604 5605 5606 5607 5607 5608 5609 5609 5610 5611 5612 5612 5612 5613 5614 5615 5616 5617 5616 5617 5619 5621 5624 5626 5626 5627 5628 5630 5629 5627 5625 5623 5620 5617 5613 5610 5606 5603 5599 5595 5591 5587
5594 5596 5597 5598 5598 5599 5599 5599 5600 5600 5600 5602 5602 5602 5602 5603 5605 5606 5607 5606 5602 5604 5607 5608 5611 5611 5612 5612 5613 5614 5613 5611 5610 5607 5604 5601 5598 5595 5591 5588 5584 5579 5575 5571
5588 5589 5590 5590 5590 5590 5591 5591 5591 5591 5591 5592 5592 5593 5594 5594 5594 5593 5592 5592 5591 5592 5596 5597 5597 5595 5597 5599 5599 5599 5597 5596 5594 5592 5589 5586 5583 5580 5576 5572 5568 5563 5559 5555
5582 5583 5583 5583 5582 5583 5582 5583 5582 5583 5583 5584 5585 5585 5586 5586 5587 5586 5583 5580 5582 5580 5583 5581 5579 5581 5584 5587 5586 5585 5583 5582 5579 5577 5574 5571 5567 5563 5559 5556 5552 5547 5543 5540
5574 5574 5575 5575 5576 5576 5575 5574 5574 5574 5575 5575 5575 5575 5576 5576 5575 5573 5571 5567 5568 5570 5569 5565 5567 5570 5572 5574 5572 5570 5568 5566 5564 5561 5558 5555 5552 5548 5544 5540 5536 5531 5528 5524
5567 5567 5567 5568 5568 5568 5566 5566 5566 5566 5567 5566 5566 5566 5566 5565 5565 5562 5561 5559 5558 5560 5559 5556 5556 5558 5560 5560 5557 5555 5553 5550 5548 5546 5543 5540 5536 5532 5528 5524 5521 5516 5513 5509
5560 5561 5560 5560 5561 5560 5561 5562 5562 5561 5560 5559 5557 5556 5555 5554 5554 5553 5552 5551 5550 5549 5550 5548 5547 5547 5547 5545 5542 5540 5538 5535 5533 5531 5527 5524 5521 5517 5513 5509 5505 5502 5498 5493
5553 5553 5553 5553 5553 5554 5555 5555 5554 5553 5552 5551 5549 5547 5546 5545 5544 5544 5543 5542 5542 5541 5540 5538 5537 5536 5534 5532 5529 5527 5524 5521 5518 5515 5512 5509 5506 5502 5498 5494 5491 5487 5483 5479